Starlink 3834

operational
NORAD ID: 52368 Int'l Des: 2022-045 Owner: SPXS Country: US Constellation: starlink
LEOCIRCULAR

About Starlink 3834

Description loading...

Live Position

Loading 3D Globe...

Upcoming Passes

Altitude History

Altitude vs Time

uPlot chart will show altitude changes over time

Two-Line Element Set

1 52368U 22045AP 25345.66412608 .00002296 00000-0 16221-3 0 9993
2 52368 53.2154 224.2824 0001233 89.6880 270.4254 15.08862038202625
Epoch: Dec 11, 2025 • Age: 8 hours

Current Status

Altitude 541.4 km
Velocity 7.60 km/s
Sub-Earth Point 33.29°N, 169.87°E
Launch Date Apr 29, 2022
Age 3.6 years
Type internet

Technical Details

Classification Payload
Mass 297.00 kg
Dry Mass 275.00 kg
Total Mass 297.00 kg
Length 0.20 m
Diameter 2.80 m
Span 9.00 m
Shape Box + pan
Manufacturer SPXS
Bus Type Starlink
Phase Status In Orbit
Owner/State SPXS/US

Large Constellations

Loading constellations...